Wetterdaten: aktuell Samstag, 10.04.2021 17:15
Datum Zeit Temp. A. Temp. A. min Temp. A. max Feuchte A. Luftdruck Regen Wind Richtung Richtung Sonnenschein UV Solar Windben
10.04.2021 17:15 8,8 C 8,8 C 8,8 C 92 % 1010,7 hPa 0,2 l/m 9,7 km/h (2 Bft) O-NO 67 0 min 0,0 UV-I 69 W/m 19,3 km/h (3 Bft)
10.04.2021 17:10 8,8 C 8,8 C 8,9 C 92 % 1010,8 hPa 0,0 l/m 9,7 km/h (2 Bft) O 90 0 min 0,6 UV-I 100 W/m 17,7 km/h (3 Bft)
10.04.2021 17:05 8,8 C 8,8 C 8,8 C 93 % 1011,0 hPa 0,2 l/m 9,7 km/h (2 Bft) O 90 0 min 0,7 UV-I 130 W/m 19,3 km/h (3 Bft)
10.04.2021 17:00 8,8 C 8,7 C 8,8 C 92 % 1011,2 hPa 0,0 l/m 8,0 km/h (2 Bft) O 90 0 min 0,6 UV-I 111 W/m 16,1 km/h (3 Bft)
10.04.2021 16:55 8,7 C 8,7 C 8,7 C 92 % 1011,3 hPa 0,2 l/m 6,4 km/h (2 Bft) O 90 0 min 0,5 UV-I 88 W/m 12,9 km/h (3 Bft)
10.04.2021 16:50 8,7 C 8,6 C 8,7 C 92 % 1011,4 hPa 0,2 l/m 6,4 km/h (2 Bft) O 90 0 min 0,0 UV-I 79 W/m 14,5 km/h (3 Bft)
10.04.2021 16:45 8,7 C 8,6 C 8,7 C 92 % 1011,5 hPa 0,2 l/m 4,8 km/h (1 Bft) O 90 0 min 0,0 UV-I 58 W/m 11,3 km/h (2 Bft)
10.04.2021 16:40 8,7 C 8,6 C 8,7 C 92 % 1011,5 hPa 0,0 l/m 4,8 km/h (1 Bft) O 90 0 min 0,5 UV-I 86 W/m 11,3 km/h (2 Bft)
10.04.2021 16:35 8,6 C 8,6 C 8,6 C 92 % 1011,6 hPa 0,2 l/m 8,0 km/h (2 Bft) O 90 0 min 0,6 UV-I 98 W/m 16,1 km/h (3 Bft)
10.04.2021 16:30 8,6 C 8,5 C 8,6 C 92 % 1011,7 hPa 0,2 l/m 9,7 km/h (2 Bft) O 90 0 min 0,7 UV-I 109 W/m 17,7 km/h (3 Bft)
10.04.2021 16:25 8,5 C 8,4 C 8,5 C 91 % 1011,7 hPa 0,2 l/m 8,0 km/h (2 Bft) O 90 0 min 0,7 UV-I 120 W/m 17,7 km/h (3 Bft)
10.04.2021 16:20 8,4 C 8,4 C 8,4 C 91 % 1011,8 hPa 0,0 l/m 9,7 km/h (2 Bft) O 90 0 min 0,7 UV-I 114 W/m 19,3 km/h (3 Bft)
10.04.2021 16:15 8,4 C 8,3 C 8,4 C 91 % 1011,8 hPa 0,4 l/m 8,0 km/h (2 Bft) O 90 0 min 0,0 UV-I 69 W/m 16,1 km/h (3 Bft)
10.04.2021 16:10 8,4 C 8,3 C 8,4 C 91 % 1011,9 hPa 0,0 l/m 6,4 km/h (2 Bft) O 90 0 min 0,5 UV-I 69 W/m 14,5 km/h (3 Bft)
10.04.2021 16:05 8,4 C 8,3 C 8,4 C 91 % 1011,9 hPa 0,2 l/m 4,8 km/h (1 Bft) O 90 0 min 0,0 UV-I 56 W/m 12,9 km/h (3 Bft)
10.04.2021 16:00 8,4 C 8,4 C 8,4 C 91 % 1012,0 hPa 0,0 l/m 9,7 km/h (2 Bft) O 90 0 min 0,0 UV-I 65 W/m 19,3 km/h (3 Bft)
10.04.2021 15:55 8,4 C 8,4 C 8,4 C 91 % 1012,1 hPa 0,2 l/m 8,0 km/h (2 Bft) O 90 0 min 0,0 UV-I 60 W/m 14,5 km/h (3 Bft)
10.04.2021 15:50 8,4 C 8,4 C 8,4 C 91 % 1012,1 hPa 0,2 l/m 6,4 km/h (2 Bft) O-NO 67 0 min 0,0 UV-I 51 W/m 16,1 km/h (3 Bft)
10.04.2021 15:45 8,4 C 8,4 C 8,4 C 90 % 1012,2 hPa 0,0 l/m 6,4 km/h (2 Bft) O 90 0 min 0,5 UV-I 70 W/m 17,7 km/h (3 Bft)
10.04.2021 15:40 8,4 C 8,4 C 8,5 C 90 % 1012,2 hPa 0,2 l/m 9,7 km/h (2 Bft) O 90 0 min 0,5 UV-I 77 W/m 20,9 km/h (4 Bft)
10.04.2021 15:35 8,5 C 8,5 C 8,6 C 90 % 1012,4 hPa 0,0 l/m 11,3 km/h (2 Bft) O 90 0 min 0,5 UV-I 76 W/m 22,5 km/h (4 Bft)
10.04.2021 15:30 8,6 C 8,6 C 8,7 C 90 % 1012,4 hPa 0,2 l/m 11,3 km/h (2 Bft) O 90 0 min 1,0 UV-I 149 W/m 20,9 km/h (4 Bft)
10.04.2021 15:25 8,6 C 8,6 C 8,7 C 90 % 1012,5 hPa 0,0 l/m 9,7 km/h (2 Bft) O 90 0 min 1,0 UV-I 153 W/m 17,7 km/h (3 Bft)
10.04.2021 15:20 8,7 C 8,6 C 8,7 C 90 % 1012,6 hPa 0,2 l/m 9,7 km/h (2 Bft) O 90 0 min 0,9 UV-I 141 W/m 19,3 km/h (3 Bft)
10.04.2021 15:15 8,7 C 8,6 C 8,7 C 90 % 1012,6 hPa 0,0 l/m 8,0 km/h (2 Bft) O 90 0 min 0,9 UV-I 132 W/m 17,7 km/h (3 Bft)
10.04.2021 15:10 8,6 C 8,6 C 8,6 C 90 % 1012,7 hPa 0,0 l/m 9,7 km/h (2 Bft) O-NO 67 0 min 0,8 UV-I 130 W/m 17,7 km/h (3 Bft)
10.04.2021 15:05 8,6 C 8,5 C 8,6 C 90 % 1012,7 hPa 0,0 l/m 9,7 km/h (2 Bft) O 90 0 min 0,8 UV-I 114 W/m 17,7 km/h (3 Bft)
10.04.2021 15:00 8,6 C 8,5 C 8,6 C 90 % 1012,8 hPa 0,2 l/m 8,0 km/h (2 Bft) O 90 0 min 0,8 UV-I 125 W/m 16,1 km/h (3 Bft)
10.04.2021 14:55 8,5 C 8,4 C 8,5 C 90 % 1012,9 hPa 0,0 l/m 8,0 km/h (2 Bft) O 90 0 min 0,8 UV-I 113 W/m 14,5 km/h (3 Bft)
10.04.2021 14:50 8,4 C 8,4 C 8,4 C 90 % 1012,9 hPa 0,0 l/m 6,4 km/h (2 Bft) O 90 0 min 0,6 UV-I 88 W/m 16,1 km/h (3 Bft)
10.04.2021 14:45 8,4 C 8,4 C 8,5 C 90 % 1012,9 hPa 0,0 l/m 11,3 km/h (2 Bft) O-NO 67 0 min 0,7 UV-I 109 W/m 19,3 km/h (3 Bft)
10.04.2021 14:40 8,5 C 8,4 C 8,6 C 90 % 1012,9 hPa 0,0 l/m 9,7 km/h (2 Bft) O 90 0 min 0,0 UV-I 54 W/m 17,7 km/h (3 Bft)
10.04.2021 14:35 8,5 C 8,5 C 8,6 C 90 % 1013,0 hPa 0,0 l/m 11,3 km/h (2 Bft) O 90 0 min 0,0 UV-I 42 W/m 19,3 km/h (3 Bft)
10.04.2021 14:30 8,6 C 8,6 C 8,7 C 90 % 1013,0 hPa 0,2 l/m 8,0 km/h (2 Bft) O 90 0 min 0,0 UV-I 63 W/m 16,1 km/h (3 Bft)
10.04.2021 14:25 8,7 C 8,7 C 8,7 C 89 % 1013,1 hPa 0,2 l/m 8,0 km/h (2 Bft) O-NO 67 0 min 0,0 UV-I 53 W/m 14,5 km/h (3 Bft)
10.04.2021 14:20 8,7 C 8,7 C 8,8 C 89 % 1013,1 hPa 0,2 l/m 6,4 km/h (2 Bft) O 90 0 min 0,5 UV-I 72 W/m 17,7 km/h (3 Bft)
10.04.2021 14:15 8,8 C 8,8 C 8,9 C 89 % 1013,3 hPa 0,0 l/m 8,0 km/h (2 Bft) O-NO 67 0 min 1,1 UV-I 151 W/m 17,7 km/h (3 Bft)
10.04.2021 14:10 8,9 C 8,8 C 8,9 C 90 % 1013,3 hPa 0,0 l/m 6,4 km/h (2 Bft) O 90 0 min 1,1 UV-I 171 W/m 17,7 km/h (3 Bft)
10.04.2021 14:05 8,8 C 8,8 C 8,8 C 89 % 1013,4 hPa 0,2 l/m 6,4 km/h (2 Bft) O 90 0 min 1,5 UV-I 241 W/m 12,9 km/h (3 Bft)
10.04.2021 14:00 8,8 C 8,7 C 8,8 C 89 % 1013,4 hPa 0,0 l/m 8,0 km/h (2 Bft) O 90 0 min 1,3 UV-I 221 W/m 17,7 km/h (3 Bft)
10.04.2021 13:55 8,8 C 8,8 C 8,8 C 89 % 1013,5 hPa 0,2 l/m 6,4 km/h (2 Bft) O-SO 112 0 min 0,8 UV-I 125 W/m 14,5 km/h (3 Bft)
10.04.2021 13:50 8,8 C 8,8 C 8,8 C 89 % 1013,5 hPa 0,2 l/m 8,0 km/h (2 Bft) O 90 0 min 0,9 UV-I 134 W/m 16,1 km/h (3 Bft)
10.04.2021 13:45 8,8 C 8,8 C 8,8 C 89 % 1013,6 hPa 0,0 l/m 6,4 km/h (2 Bft) O 90 0 min 0,9 UV-I 142 W/m 12,9 km/h (3 Bft)
10.04.2021 13:40 8,8 C 8,7 C 8,8 C 89 % 1013,6 hPa 0,2 l/m 4,8 km/h (1 Bft) O 90 0 min 0,9 UV-I 139 W/m 16,1 km/h (3 Bft)
10.04.2021 13:35 8,8 C 8,7 C 8,8 C 88 % 1013,7 hPa 0,0 l/m 8,0 km/h (2 Bft) O-NO 67 0 min 0,6 UV-I 93 W/m 14,5 km/h (3 Bft)
10.04.2021 13:30 8,8 C 8,8 C 8,8 C 88 % 1013,6 hPa 0,0 l/m 6,4 km/h (2 Bft) O 90 0 min 0,7 UV-I 97 W/m 11,3 km/h (2 Bft)
10.04.2021 13:25 8,8 C 8,8 C 8,8 C 88 % 1013,8 hPa 0,0 l/m 8,0 km/h (2 Bft) O 90 0 min 0,8 UV-I 125 W/m 19,3 km/h (3 Bft)
10.04.2021 13:20 8,8 C 8,8 C 8,9 C 88 % 1013,9 hPa 0,2 l/m 4,8 km/h (1 Bft) O 90 0 min 0,8 UV-I 118 W/m 12,9 km/h (3 Bft)
10.04.2021 13:15 8,9 C 8,9 C 9,1 C 87 % 1013,9 hPa 0,0 l/m 6,4 km/h (2 Bft) O-NO 67 0 min 0,6 UV-I 88 W/m 14,5 km/h (3 Bft)
10.04.2021 13:10 9,1 C 9,1 C 9,1 C 87 % 1014,0 hPa 0,2 l/m 3,2 km/h (1 Bft) O 90 0 min 0,6 UV-I 90 W/m 8,0 km/h (2 Bft)
10.04.2021 13:05 9,1 C 9,1 C 9,2 C 87 % 1014,1 hPa 0,0 l/m 4,8 km/h (1 Bft) O-NO 67 0 min 0,5 UV-I 77 W/m 11,3 km/h (2 Bft)
10.04.2021 13:00 9,1 C 9,1 C 9,2 C 87 % 1014,1 hPa 0,2 l/m 4,8 km/h (1 Bft) NO 45 0 min 0,5 UV-I 69 W/m 8,0 km/h (2 Bft)
10.04.2021 12:55 9,1 C 9,1 C 9,2 C 87 % 1014,2 hPa 0,0 l/m 4,8 km/h (1 Bft) NO 45 0 min 0,7 UV-I 109 W/m 6,4 km/h (2 Bft)
10.04.2021 12:50 9,2 C 9,2 C 9,3 C 86 % 1014,3 hPa 0,0 l/m 4,8 km/h (1 Bft) NO 45 0 min 0,9 UV-I 139 W/m 8,0 km/h (2 Bft)
10.04.2021 12:45 9,3 C 9,2 C 9,3 C 87 % 1014,3 hPa 0,0 l/m 4,8 km/h (1 Bft) O-NO 67 0 min 1,1 UV-I 185 W/m 8,0 km/h (2 Bft)
10.04.2021 12:40 9,2 C 9,1 C 9,2 C 87 % 1014,3 hPa 0,0 l/m 4,8 km/h (1 Bft) O 90 0 min 1,2 UV-I 206 W/m 8,0 km/h (2 Bft)
10.04.2021 12:35 9,1 C 9,1 C 9,2 C 87 % 1014,4 hPa 0,0 l/m 4,8 km/h (1 Bft) O-NO 67 0 min 1,2 UV-I 207 W/m 11,3 km/h (2 Bft)
10.04.2021 12:30 9,1 C 8,9 C 9,1 C 87 % 1014,4 hPa 0,0 l/m 3,2 km/h (1 Bft) O 90 0 min 1,2 UV-I 206 W/m 11,3 km/h (2 Bft)
10.04.2021 12:25 9,0 C 8,9 C 9,0 C 87 % 1014,5 hPa 0,2 l/m 4,8 km/h (1 Bft) O 90 0 min 1,0 UV-I 179 W/m 11,3 km/h (2 Bft)
10.04.2021 12:20 8,9 C 8,8 C 8,9 C 87 % 1014,5 hPa 0,0 l/m 3,2 km/h (1 Bft) O 90 0 min 1,0 UV-I 178 W/m 6,4 km/h (2 Bft)
10.04.2021 12:15 8,8 C 8,8 C 8,8 C 86 % 1014,5 hPa 0,0 l/m 4,8 km/h (1 Bft) O 90 0 min 1,0 UV-I 178 W/m 12,9 km/h (3 Bft)
10.04.2021 12:10 8,8 C 8,7 C 8,8 C 86 % 1014,6 hPa 0,0 l/m 3,2 km/h (1 Bft) O-NO 67 0 min 0,9 UV-I 149 W/m 8,0 km/h (2 Bft)
10.04.2021 12:05 8,8 C 8,8 C 8,8 C 86 % 1014,6 hPa 0,0 l/m 4,8 km/h (1 Bft) O 90 0 min 0,8 UV-I 141 W/m 11,3 km/h (2 Bft)
10.04.2021 12:00 8,8 C 8,8 C 8,8 C 85 % 1014,7 hPa 0,0 l/m 4,8 km/h (1 Bft) O 90 0 min 0,5 UV-I 86 W/m 9,7 km/h (2 Bft)
10.04.2021 11:55 8,8 C 8,8 C 8,9 C 84 % 1014,6 hPa 0,0 l/m 3,2 km/h (1 Bft) O 90 0 min 0,0 UV-I 72 W/m 9,7 km/h (2 Bft)
10.04.2021 11:50 8,9 C 8,9 C 9,0 C 84 % 1014,7 hPa 0,0 l/m 3,2 km/h (1 Bft) O-NO 67 0 min 0,6 UV-I 100 W/m 6,4 km/h (2 Bft)
10.04.2021 11:45 9,0 C 9,0 C 9,1 C 84 % 1014,6 hPa 0,0 l/m 4,8 km/h (1 Bft) O-NO 67 0 min 0,6 UV-I 107 W/m 9,7 km/h (2 Bft)
10.04.2021 11:40 9,1 C 9,0 C 9,1 C 83 % 1014,7 hPa 0,0 l/m 6,4 km/h (2 Bft) O-NO 67 0 min 0,6 UV-I 102 W/m 11,3 km/h (2 Bft)
10.04.2021 11:35 9,1 C 9,0 C 9,1 C 82 % 1014,6 hPa 0,0 l/m 8,0 km/h (2 Bft) O-NO 67 0 min 0,0 UV-I 60 W/m 12,9 km/h (3 Bft)
10.04.2021 11:30 9,1 C 9,1 C 9,1 C 82 % 1014,6 hPa 0,0 l/m 6,4 km/h (2 Bft) O-NO 67 0 min 0,6 UV-I 97 W/m 14,5 km/h (3 Bft)
10.04.2021 11:25 9,1 C 9,0 C 9,1 C 82 % 1014,6 hPa 0,0 l/m 8,0 km/h (2 Bft) O-NO 67 0 min 0,6 UV-I 114 W/m 14,5 km/h (3 Bft)
10.04.2021 11:20 9,1 C 8,9 C 9,1 C 83 % 1014,6 hPa 0,0 l/m 6,4 km/h (2 Bft) NO 45 0 min 1,0 UV-I 174 W/m 12,9 km/h (3 Bft)
10.04.2021 11:15 8,9 C 8,9 C 9,1 C 82 % 1014,6 hPa 0,0 l/m 8,0 km/h (2 Bft) O-NO 67 0 min 0,9 UV-I 174 W/m 12,9 km/h (3 Bft)
10.04.2021 11:10 9,0 C 9,0 C 9,1 C 82 % 1014,6 hPa 0,0 l/m 4,8 km/h (1 Bft) NO 45 0 min 0,9 UV-I 176 W/m 12,9 km/h (3 Bft)
10.04.2021 11:05 9,1 C 9,1 C 9,1 C 83 % 1014,6 hPa 0,0 l/m 4,8 km/h (1 Bft) NO 45 0 min 0,9 UV-I 176 W/m 9,7 km/h (2 Bft)
10.04.2021 11:00 9,1 C 9,1 C 9,1 C 83 % 1014,6 hPa 0,0 l/m 6,4 km/h (2 Bft) N-NO 22 0 min 1,1 UV-I 214 W/m 9,7 km/h (2 Bft)
10.04.2021 10:55 9,1 C 8,9 C 9,1 C 83 % 1014,6 hPa 0,0 l/m 6,4 km/h (2 Bft) NO 45 0 min 1,0 UV-I 206 W/m 11,3 km/h (2 Bft)
10.04.2021 10:50 9,0 C 8,9 C 9,0 C 83 % 1014,7 hPa 0,0 l/m 4,8 km/h (1 Bft) O-NO 67 0 min 0,9 UV-I 176 W/m 8,0 km/h (2 Bft)
10.04.2021 10:45 8,9 C 8,8 C 8,9 C 84 % 1014,7 hPa 0,0 l/m 3,2 km/h (1 Bft) O 90 0 min 0,9 UV-I 188 W/m 6,4 km/h (2 Bft)
10.04.2021 10:40 8,8 C 8,7 C 8,8 C 84 % 1014,5 hPa 0,0 l/m 1,6 km/h (1 Bft) O-SO 112 0 min 1,0 UV-I 188 W/m 6,4 km/h (2 Bft)
10.04.2021 10:35 8,7 C 8,6 C 8,7 C 84 % 1014,6 hPa 0,0 l/m 3,2 km/h (1 Bft) O 90 0 min 0,9 UV-I 165 W/m 8,0 km/h (2 Bft)
10.04.2021 10:30 8,6 C 8,5 C 8,6 C 84 % 1014,5 hPa 0,0 l/m 4,8 km/h (1 Bft) O-SO 112 0 min 0,9 UV-I 174 W/m 11,3 km/h (2 Bft)
10.04.2021 10:25 8,5 C 8,4 C 8,5 C 84 % 1014,6 hPa 0,0 l/m 4,8 km/h (1 Bft) O-NO 67 0 min 0,9 UV-I 156 W/m 9,7 km/h (2 Bft)
10.04.2021 10:20 8,4 C 8,4 C 8,4 C 84 % 1014,5 hPa 0,0 l/m 4,8 km/h (1 Bft) O 90 0 min 0,8 UV-I 141 W/m 11,3 km/h (2 Bft)
10.04.2021 10:15 8,4 C 8,3 C 8,4 C 84 % 1014,4 hPa 0,0 l/m 3,2 km/h (1 Bft) O-SO 112 0 min 0,7 UV-I 135 W/m 8,0 km/h (2 Bft)
10.04.2021 10:10 8,4 C 8,3 C 8,4 C 84 % 1014,4 hPa 0,0 l/m 3,2 km/h (1 Bft) O-SO 112 0 min 0,5 UV-I 97 W/m 6,4 km/h (2 Bft)
10.04.2021 10:05 8,4 C 8,3 C 8,4 C 84 % 1014,4 hPa 0,0 l/m 3,2 km/h (1 Bft) O 90 0 min 0,5 UV-I 97 W/m 9,7 km/h (2 Bft)
10.04.2021 10:00 8,3 C 8,3 C 8,3 C 84 % 1014,3 hPa 0,0 l/m 3,2 km/h (1 Bft) O-SO 112 0 min 0,0 UV-I 81 W/m 9,7 km/h (2 Bft)
10.04.2021 09:55 8,3 C 8,3 C 8,3 C 84 % 1014,2 hPa 0,0 l/m 4,8 km/h (1 Bft) O 90 0 min 0,0 UV-I 98 W/m 11,3 km/h (2 Bft)
10.04.2021 09:50 8,3 C 8,3 C 8,3 C 84 % 1014,3 hPa 0,0 l/m 4,8 km/h (1 Bft) O 90 0 min 0,5 UV-I 102 W/m 12,9 km/h (3 Bft)
10.04.2021 09:45 8,3 C 8,2 C 8,3 C 85 % 1014,3 hPa 0,0 l/m 3,2 km/h (1 Bft) O-SO 112 0 min 0,5 UV-I 114 W/m 8,0 km/h (2 Bft)
10.04.2021 09:40 8,2 C 8,2 C 8,2 C 85 % 1014,4 hPa 0,0 l/m 3,2 km/h (1 Bft) O 90 0 min 0,5 UV-I 113 W/m 9,7 km/h (2 Bft)
10.04.2021 09:35 8,2 C 8,1 C 8,2 C 84 % 1014,4 hPa 0,0 l/m 3,2 km/h (1 Bft) O-SO 112 0 min 0,0 UV-I 104 W/m 11,3 km/h (2 Bft)
10.04.2021 09:30 8,1 C 8,1 C 8,2 C 85 % 1014,4 hPa 0,0 l/m 4,8 km/h (1 Bft) O 90 0 min 0,0 UV-I 98 W/m 12,9 km/h (3 Bft)
10.04.2021 09:25 8,1 C 8,1 C 8,1 C 85 % 1014,2 hPa 0,0 l/m 4,8 km/h (1 Bft) O 90 0 min 0,0 UV-I 95 W/m 12,9 km/h (3 Bft)
10.04.2021 09:20 8,1 C 8,0 C 8,1 C 85 % 1014,2 hPa 0,0 l/m 3,2 km/h (1 Bft) O 90 0 min 0,0 UV-I 90 W/m 11,3 km/h (2 Bft)
10.04.2021 09:15 8,0 C 7,9 C 8,1 C 85 % 1014,2 hPa 0,0 l/m 3,2 km/h (1 Bft) O 90 0 min 0,0 UV-I 88 W/m 11,3 km/h (2 Bft)
10.04.2021 09:10 8,0 C 7,9 C 8,0 C 85 % 1014,2 hPa 0,0 l/m 1,6 km/h (1 Bft) O 90 0 min 0,0 UV-I 81 W/m 6,4 km/h (2 Bft)
10.04.2021 09:05 7,9 C 7,8 C 7,9 C 86 % 1014,1 hPa 0,0 l/m 6,4 km/h (2 Bft) O 90 0 min 0,0 UV-I 74 W/m 11,3 km/h (2 Bft)
10.04.2021 09:00 7,9 C 7,8 C 7,9 C 85 % 1014,2 hPa 0,0 l/m 3,2 km/h (1 Bft) O 90 0 min 0,0 UV-I 69 W/m 8,0 km/h (2 Bft)
10.04.2021 08:55 7,8 C 7,8 C 7,8 C 85 % 1014,1 hPa 0,0 l/m 3,2 km/h (1 Bft) O 90 0 min 0,0 UV-I 65 W/m 9,7 km/h (2 Bft)
10.04.2021 08:50 7,8 C 7,7 C 7,8 C 86 % 1014,1 hPa 0,0 l/m 4,8 km/h (1 Bft) O-NO 67 0 min 0,0 UV-I 60 W/m 8,0 km/h (2 Bft)
10.04.2021 08:45 7,7 C 7,7 C 7,7 C 86 % 1014,1 hPa 0,0 l/m 4,8 km/h (1 Bft) O 90 0 min 0,0 UV-I 65 W/m 11,3 km/h (2 Bft)
10.04.2021 08:40 7,7 C 7,6 C 7,7 C 86 % 1014,1 hPa 0,0 l/m 3,2 km/h (1 Bft) O 90 0 min 0,0 UV-I 67 W/m 8,0 km/h (2 Bft)
10.04.2021 08:35 7,7 C 7,6 C 7,7 C 86 % 1014,1 hPa 0,0 l/m 1,6 km/h (1 Bft) O-SO 112 0 min 0,0 UV-I 67 W/m 4,8 km/h (1 Bft)
10.04.2021 08:30 7,6 C 7,5 C 7,6 C 85 % 1014,0 hPa 0,0 l/m 1,6 km/h (1 Bft) O 90 0 min 0,0 UV-I 69 W/m 6,4 km/h (2 Bft)
10.04.2021 08:25 7,6 C 7,4 C 7,6 C 85 % 1014,0 hPa 0,0 l/m 3,2 km/h (1 Bft) O-SO 112 0 min 0,0 UV-I 67 W/m 8,0 km/h (2 Bft)
10.04.2021 08:20 7,4 C 7,4 C 7,5 C 86 % 1014,0 hPa 0,0 l/m 3,2 km/h (1 Bft) O 90 0 min 0,0 UV-I 60 W/m 11,3 km/h (2 Bft)
10.04.2021 08:15 7,4 C 7,3 C 7,4 C 86 % 1014,0 hPa 0,0 l/m 3,2 km/h (1 Bft) O 90 0 min 0,0 UV-I 58 W/m 9,7 km/h (2 Bft)
10.04.2021 08:10 7,3 C 7,2 C 7,3 C 86 % 1013,9 hPa 0,0 l/m 3,2 km/h (1 Bft) O 90 0 min 0,0 UV-I 69 W/m 8,0 km/h (2 Bft)
10.04.2021 08:05 7,2 C 7,1 C 7,2 C 87 % 1013,8 hPa 0,0 l/m 3,2 km/h (1 Bft) O 90 0 min 0,0 UV-I 67 W/m 6,4 km/h (2 Bft)
10.04.2021 08:00 7,1 C 7,0 C 7,1 C 86 % 1013,7 hPa 0,0 l/m 4,8 km/h (1 Bft) O-NO 67 0 min 0,0 UV-I 51 W/m 11,3 km/h (2 Bft)
10.04.2021 07:55 7,0 C 6,9 C 7,1 C 87 % 1013,8 hPa 0,0 l/m 3,2 km/h (1 Bft) O-NO 67 0 min 0,0 UV-I 37 W/m 11,3 km/h (2 Bft)
10.04.2021 07:50 6,9 C 6,8 C 7,0 C 87 % 1013,8 hPa 0,0 l/m 1,6 km/h (1 Bft) O-NO 67 0 min 0,0 UV-I 26 W/m 6,4 km/h (2 Bft)
10.04.2021 07:45 6,9 C 6,8 C 6,9 C 87 % 1013,8 hPa 0,0 l/m 4,8 km/h (1 Bft) O-NO 67 0 min 0,0 UV-I 19 W/m 9,7 km/h (2 Bft)
10.04.2021 07:40 6,8 C 6,8 C 6,9 C 87 % 1013,9 hPa 0,0 l/m 1,6 km/h (1 Bft) O 90 0 min 0,0 UV-I 12 W/m 6,4 km/h (2 Bft)
10.04.2021 07:35 6,8 C 6,8 C 6,8 C 87 % 1013,7 hPa 0,0 l/m 1,6 km/h (1 Bft) O-SO 112 0 min 0,0 UV-I 12 W/m 4,8 km/h (1 Bft)
10.04.2021 07:30 6,8 C 6,7 C 6,8 C 87 % 1013,6 hPa 0,0 l/m 0,0 km/h (0 Bft) O 90 0 min 0,0 UV-I 7 W/m 3,2 km/h (1 Bft)
10.04.2021 07:25 6,8 C 6,8 C 6,8 C 87 % 1013,6 hPa 0,0 l/m 1,6 km/h (1 Bft) NO 45 0 min 0,0 UV-I 5 W/m 4,8 km/h (1 Bft)
10.04.2021 07:20 6,8 C 6,8 C 6,8 C 87 % 1013,5 hPa 0,0 l/m 3,2 km/h (1 Bft) N-NO 22 0 min 0,0 UV-I 7 W/m 4,8 km/h (1 Bft)
10.04.2021 07:15 6,8 C 6,8 C 6,8 C 87 % 1013,3 hPa 0,0 l/m 1,6 km/h (1 Bft) N-NO 22 0 min 0,0 UV-I 7 W/m 4,8 km/h (1 Bft)
10.04.2021 07:10 6,8 C 6,7 C 6,8 C 87 % 1013,2 hPa 0,0 l/m 3,2 km/h (1 Bft) N-NO 22 0 min 0,0 UV-I 7 W/m 6,4 km/h (2 Bft)
10.04.2021 07:05 6,7 C 6,7 C 6,8 C 87 % 1013,2 hPa 0,0 l/m 3,2 km/h (1 Bft) N-NO 22 0 min 0,0 UV-I 5 W/m 8,0 km/h (2 Bft)
10.04.2021 07:00 6,8 C 6,7 C 6,8 C 87 % 1013,2 hPa 0,0 l/m 0,0 km/h (0 Bft) O-NO 67 0 min 0,0 UV-I 0 W/m 1,6 km/h (1 Bft)
10.04.2021 06:55 6,8 C 6,7 C 6,8 C 86 % 1013,3 hPa 0,0 l/m 0,0 km/h (0 Bft) N 0 0 min 0,0 UV-I 0 W/m 0,0 km/h (0 Bft)
10.04.2021 06:50 6,7 C 6,7 C 6,8 C 86 % 1013,3 hPa 0,0 l/m 0,0 km/h (0 Bft) N 0 0 min 0,0 UV-I 0 W/m 0,0 km/h (0 Bft)
10.04.2021 06:45 6,8 C 6,8 C 6,8 C 86 % 1013,3 hPa 0,0 l/m 0,0 km/h (0 Bft) N 0 0 min 0,0 UV-I 0 W/m 0,0 km/h (0 Bft)
10.04.2021 06:40 6,8 C 6,8 C 6,8 C 86 % 1013,2 hPa 0,0 l/m 0,0 km/h (0 Bft) N 0 0 min 0,0 UV-I 0 W/m 0,0 km/h (0 Bft)
10.04.2021 06:35 6,8 C 6,8 C 6,9 C 85 % 1013,2 hPa 0,0 l/m 0,0 km/h (0 Bft) N 0 0 min 0,0 UV-I 0 W/m 0,0 km/h (0 Bft)
10.04.2021 06:30 6,9 C 6,9 C 6,9 C 85 % 1013,1 hPa 0,0 l/m 1,6 km/h (1 Bft) NO 45 0 min 0,0 UV-I 0 W/m 4,8 km/h (1 Bft)
10.04.2021 06:25 6,9 C 6,9 C 7,0 C 86 % 1013,1 hPa 0,0 l/m 3,2 km/h (1 Bft) NO 45 0 min 0,0 UV-I 0 W/m 4,8 km/h (1 Bft)
10.04.2021 06:20 6,9 C 6,9 C 7,0 C 85 % 1013,1 hPa 0,0 l/m 0,0 km/h (0 Bft) N 0 0 min 0,0 UV-I 0 W/m 0,0 km/h (0 Bft)
10.04.2021 06:15 7,0 C 7,0 C 7,1 C 85 % 1013,2 hPa 0,0 l/m 0,0 km/h (0 Bft) NO 45 0 min 0,0 UV-I 0 W/m 3,2 km/h (1 Bft)
10.04.2021 06:10 7,1 C 7,1 C 7,1 C 85 % 1013,1 hPa 0,0 l/m 0,0 km/h (0 Bft) NO 45 0 min 0,0 UV-I 0 W/m 3,2 km/h (1 Bft)
10.04.2021 06:05 7,1 C 7,1 C 7,2 C 85 % 1013,1 hPa 0,0 l/m 0,0 km/h (0 Bft) NO 45 0 min 0,0 UV-I 0 W/m 1,6 km/h (1 Bft)
10.04.2021 06:00 7,2 C 7,1 C 7,2 C 85 % 1013,0 hPa 0,0 l/m 1,6 km/h (1 Bft) O 90 0 min 0,0 UV-I 0 W/m 4,8 km/h (1 Bft)
10.04.2021 05:55 7,2 C 7,2 C 7,2 C 86 % 1013,0 hPa 0,0 l/m 0,0 km/h (0 Bft) O 90 0 min 0,0 UV-I 0 W/m 3,2 km/h (1 Bft)
10.04.2021 05:50 7,2 C 7,2 C 7,2 C 86 % 1012,8 hPa 0,0 l/m 0,0 km/h (0 Bft) N 0 0 min 0,0 UV-I 0 W/m 0,0 km/h (0 Bft)
10.04.2021 05:45 7,2 C 7,2 C 7,3 C 87 % 1012,7 hPa 0,0 l/m 0,0 km/h (0 Bft) N 0 0 min 0,0 UV-I 0 W/m 0,0 km/h (0 Bft)
10.04.2021 05:40 7,2 C 7,2 C 7,3 C 87 % 1012,8 hPa 0,0 l/m 0,0 km/h (0 Bft) N 0 0 min 0,0 UV-I 0 W/m 0,0 km/h (0 Bft)
10.04.2021 05:35 7,3 C 7,3 C 7,4 C 88 % 1012,8 hPa 0,0 l/m 0,0 km/h (0 Bft) N 0 0 min 0,0 UV-I 0 W/m 0,0 km/h (0 Bft)
10.04.2021 05:30 7,3 C 7,3 C 7,4 C 89 % 1012,9 hPa 0,0 l/m 0,0 km/h (0 Bft) N 0 0 min 0,0 UV-I 0 W/m 0,0 km/h (0 Bft)
10.04.2021 05:25 7,4 C 7,3 C 7,4 C 89 % 1012,9 hPa 0,0 l/m 1,6 km/h (1 Bft) O 90 0 min 0,0 UV-I 0 W/m 4,8 km/h (1 Bft)
10.04.2021 05:20 7,4 C 7,3 C 7,4 C 89 % 1012,9 hPa 0,0 l/m 1,6 km/h (1 Bft) S-SO 157 0 min 0,0 UV-I 0 W/m 3,2 km/h (1 Bft)
10.04.2021 05:15 7,4 C 7,3 C 7,4 C 89 % 1012,8 hPa 0,0 l/m 0,0 km/h (0 Bft) N 0 0 min 0,0 UV-I 0 W/m 0,0 km/h (0 Bft)
10.04.2021 05:10 7,3 C 7,3 C 7,4 C 89 % 1012,8 hPa 0,0 l/m 0,0 km/h (0 Bft) N 0 0 min 0,0 UV-I 0 W/m 0,0 km/h (0 Bft)
10.04.2021 05:05 7,3 C 7,3 C 7,4 C 89 % 1012,7 hPa 0,0 l/m 0,0 km/h (0 Bft) N 0 0 min 0,0 UV-I 0 W/m 0,0 km/h (0 Bft)
10.04.2021 05:00 7,4 C 7,3 C 7,4 C 88 % 1012,6 hPa 0,0 l/m 0,0 km/h (0 Bft) S-SO 157 0 min 0,0 UV-I 0 W/m 1,6 km/h (1 Bft)
10.04.2021 04:55 7,4 C 7,3 C 7,4 C 88 % 1012,6 hPa 0,0 l/m 0,0 km/h (0 Bft) N 0 0 min 0,0 UV-I 0 W/m 0,0 km/h (0 Bft)
10.04.2021 04:50 7,4 C 7,4 C 7,4 C 88 % 1012,7 hPa 0,0 l/m 0,0 km/h (0 Bft) N 0 0 min 0,0 UV-I 0 W/m 0,0 km/h (0 Bft)
10.04.2021 04:45 7,4 C 7,4 C 7,4 C 88 % 1012,6 hPa 0,0 l/m 0,0 km/h (0 Bft) N 0 0 min 0,0 UV-I 0 W/m 0,0 km/h (0 Bft)
10.04.2021 04:40 7,4 C 7,4 C 7,5 C 88 % 1012,5 hPa 0,0 l/m 0,0 km/h (0 Bft) N 0 0 min 0,0 UV-I 0 W/m 0,0 km/h (0 Bft)
10.04.2021 04:35 7,5 C 7,4 C 7,5 C 88 % 1012,4 hPa 0,0 l/m 0,0 km/h (0 Bft) N 0 0 min 0,0 UV-I 0 W/m 0,0 km/h (0 Bft)
10.04.2021 04:30 7,5 C 7,5 C 7,6 C 88 % 1012,3 hPa 0,0 l/m 0,0 km/h (0 Bft) S-SO 157 0 min 0,0 UV-I 0 W/m 3,2 km/h (1 Bft)
10.04.2021 04:25 7,6 C 7,5 C 7,6 C 87 % 1012,3 hPa 0,0 l/m 0,0 km/h (0 Bft) S-SO 157 0 min 0,0 UV-I 0 W/m 1,6 km/h (1 Bft)
10.04.2021 04:20 7,6 C 7,6 C 7,6 C 87 % 1012,4 hPa 0,0 l/m 0,0 km/h (0 Bft) S-SO 157 0 min 0,0 UV-I 0 W/m 1,6 km/h (1 Bft)
10.04.2021 04:15 7,6 C 7,6 C 7,6 C 87 % 1012,5 hPa 0,0 l/m 0,0 km/h (0 Bft) N 0 0 min 0,0 UV-I 0 W/m 0,0 km/h (0 Bft)
10.04.2021 04:10 7,6 C 7,6 C 7,6 C 87 % 1012,5 hPa 0,0 l/m 0,0 km/h (0 Bft) S-SO 157 0 min 0,0 UV-I 0 W/m 1,6 km/h (1 Bft)
10.04.2021 04:05 7,6 C 7,6 C 7,7 C 87 % 1012,6 hPa 0,0 l/m 0,0 km/h (0 Bft) S-SO 157 0 min 0,0 UV-I 0 W/m 1,6 km/h (1 Bft)
10.04.2021 04:00 7,6 C 7,6 C 7,6 C 87 % 1012,4 hPa 0,0 l/m 0,0 km/h (0 Bft) S-SO 157 0 min 0,0 UV-I 0 W/m 1,6 km/h (1 Bft)
10.04.2021 03:55 7,6 C 7,6 C 7,6 C 87 % 1012,5 hPa 0,0 l/m 0,0 km/h (0 Bft) S-SO 157 0 min 0,0 UV-I 0 W/m 1,6 km/h (1 Bft)
10.04.2021 03:50 7,6 C 7,6 C 7,7 C 86 % 1012,4 hPa 0,0 l/m 0,0 km/h (0 Bft) S-SO 157 0 min 0,0 UV-I 0 W/m 1,6 km/h (1 Bft)
10.04.2021 03:45 7,7 C 7,6 C 7,7 C 86 % 1012,6 hPa 0,0 l/m 0,0 km/h (0 Bft) N 0 0 min 0,0 UV-I 0 W/m 0,0 km/h (0 Bft)
10.04.2021 03:40 7,6 C 7,6 C 7,7 C 86 % 1012,5 hPa 0,0 l/m 0,0 km/h (0 Bft) N 0 0 min 0,0 UV-I 0 W/m 0,0 km/h (0 Bft)
10.04.2021 03:35 7,6 C 7,6 C 7,7 C 86 % 1012,4 hPa 0,0 l/m 0,0 km/h (0 Bft) N 0 0 min 0,0 UV-I 0 W/m 0,0 km/h (0 Bft)
10.04.2021 03:30 7,7 C 7,6 C 7,7 C 85 % 1012,3 hPa 0,0 l/m 0,0 km/h (0 Bft) S-SO 157 0 min 0,0 UV-I 0 W/m 1,6 km/h (1 Bft)
10.04.2021 03:25 7,7 C 7,7 C 7,7 C 85 % 1012,4 hPa 0,0 l/m 0,0 km/h (0 Bft) S-SO 157 0 min 0,0 UV-I 0 W/m 1,6 km/h (1 Bft)
10.04.2021 03:20 7,7 C 7,7 C 7,8 C 85 % 1012,4 hPa 0,0 l/m 0,0 km/h (0 Bft) N 0 0 min 0,0 UV-I 0 W/m 0,0 km/h (0 Bft)
10.04.2021 03:15 7,8 C 7,8 C 7,8 C 85 % 1012,6 hPa 0,2 l/m 0,0 km/h (0 Bft) S-SO 157 0 min 0,0 UV-I 0 W/m 6,4 km/h (2 Bft)
10.04.2021 03:10 7,8 C 7,8 C 7,8 C 85 % 1012,5 hPa 0,0 l/m 0,0 km/h (0 Bft) N 0 0 min 0,0 UV-I 0 W/m 0,0 km/h (0 Bft)
10.04.2021 03:05 7,8 C 7,8 C 7,8 C 85 % 1012,6 hPa 0,0 l/m 0,0 km/h (0 Bft) N 0 0 min 0,0 UV-I 0 W/m 0,0 km/h (0 Bft)
10.04.2021 03:00 7,8 C 7,7 C 7,8 C 85 % 1012,6 hPa 0,0 l/m 0,0 km/h (0 Bft) N 0 0 min 0,0 UV-I 0 W/m 0,0 km/h (0 Bft)
10.04.2021 02:55 7,8 C 7,7 C 7,8 C 85 % 1012,6 hPa 0,0 l/m 0,0 km/h (0 Bft) S-SO 157 0 min 0,0 UV-I 0 W/m 3,2 km/h (1 Bft)
10.04.2021 02:50 7,7 C 7,7 C 7,8 C 84 % 1012,6 hPa 0,0 l/m 0,0 km/h (0 Bft) S-SO 157 0 min 0,0 UV-I 0 W/m 3,2 km/h (1 Bft)
10.04.2021 02:45 7,8 C 7,8 C 7,9 C 83 % 1012,7 hPa 0,0 l/m 0,0 km/h (0 Bft) N 0 0 min 0,0 UV-I 0 W/m 0,0 km/h (0 Bft)
10.04.2021 02:40 7,8 C 7,8 C 7,9 C 83 % 1012,7 hPa 0,0 l/m 0,0 km/h (0 Bft) N 0 0 min 0,0 UV-I 0 W/m 0,0 km/h (0 Bft)
10.04.2021 02:35 7,9 C 7,9 C 7,9 C 82 % 1012,7 hPa 0,0 l/m 1,6 km/h (1 Bft) S-SO 157 0 min 0,0 UV-I 0 W/m 4,8 km/h (1 Bft)
10.04.2021 02:30 7,9 C 7,9 C 8,0 C 82 % 1012,6 hPa 0,0 l/m 0,0 km/h (0 Bft) S-SO 157 0 min 0,0 UV-I 0 W/m 4,8 km/h (1 Bft)
10.04.2021 02:25 7,9 C 7,9 C 8,0 C 82 % 1012,5 hPa 0,0 l/m 0,0 km/h (0 Bft) N 0 0 min 0,0 UV-I 0 W/m 0,0 km/h (0 Bft)
10.04.2021 02:20 7,9 C 7,9 C 8,0 C 81 % 1012,3 hPa 0,0 l/m 0,0 km/h (0 Bft) N 0 0 min 0,0 UV-I 0 W/m 0,0 km/h (0 Bft)
10.04.2021 02:15 7,9 C 7,9 C 8,0 C 81 % 1012,4 hPa 0,0 l/m 0,0 km/h (0 Bft) N 0 0 min 0,0 UV-I 0 W/m 0,0 km/h (0 Bft)
10.04.2021 02:10 8,0 C 7,9 C 8,0 C 80 % 1012,4 hPa 0,0 l/m 1,6 km/h (1 Bft) S-SO 157 0 min 0,0 UV-I 0 W/m 4,8 km/h (1 Bft)
10.04.2021 02:05 7,9 C 7,9 C 8,0 C 80 % 1012,4 hPa 0,0 l/m 4,8 km/h (1 Bft) S-SO 157 0 min 0,0 UV-I 0 W/m 9,7 km/h (2 Bft)
10.04.2021 02:00 7,9 C 7,9 C 8,1 C 80 % 1012,4 hPa 0,0 l/m 3,2 km/h (1 Bft) S-SO 157 0 min 0,0 UV-I 0 W/m 9,7 km/h (2 Bft)
10.04.2021 01:55 8,0 C 7,9 C 8,0 C 80 % 1012,4 hPa 0,0 l/m 1,6 km/h (1 Bft) SO 135 0 min 0,0 UV-I 0 W/m 4,8 km/h (1 Bft)
10.04.2021 01:50 8,0 C 7,9 C 8,1 C 79 % 1012,3 hPa 0,0 l/m 1,6 km/h (1 Bft) O-SO 112 0 min 0,0 UV-I 0 W/m 4,8 km/h (1 Bft)
10.04.2021 01:45 8,0 C 8,0 C 8,1 C 80 % 1012,3 hPa 0,0 l/m 0,0 km/h (0 Bft) N 0 0 min 0,0 UV-I 0 W/m 0,0 km/h (0 Bft)
10.04.2021 01:40 8,1 C 8,1 C 8,2 C 81 % 1012,4 hPa 0,0 l/m 0,0 km/h (0 Bft) N 0 0 min 0,0 UV-I 0 W/m 0,0 km/h (0 Bft)
10.04.2021 01:35 8,2 C 8,2 C 8,3 C 80 % 1012,3 hPa 0,0 l/m 0,0 km/h (0 Bft) N 0 0 min 0,0 UV-I 0 W/m 0,0 km/h (0 Bft)
10.04.2021 01:30 8,3 C 8,2 C 8,3 C 80 % 1012,4 hPa 0,0 l/m 0,0 km/h (0 Bft) N 0 0 min 0,0 UV-I 0 W/m 0,0 km/h (0 Bft)
10.04.2021 01:25 8,3 C 8,2 C 8,3 C 78 % 1012,5 hPa 0,0 l/m 0,0 km/h (0 Bft) N 0 0 min 0,0 UV-I 0 W/m 0,0 km/h (0 Bft)
10.04.2021 01:20 8,3 C 8,3 C 8,3 C 78 % 1012,6 hPa 0,0 l/m 0,0 km/h (0 Bft) O-SO 112 0 min 0,0 UV-I 0 W/m 3,2 km/h (1 Bft)
10.04.2021 01:15 8,3 C 8,3 C 8,4 C 78 % 1012,6 hPa 0,0 l/m 0,0 km/h (0 Bft) N 0 0 min 0,0 UV-I 0 W/m 0,0 km/h (0 Bft)
10.04.2021 01:10 8,4 C 8,4 C 8,6 C 78 % 1012,5 hPa 0,0 l/m 0,0 km/h (0 Bft) N 0 0 min 0,0 UV-I 0 W/m 0,0 km/h (0 Bft)
10.04.2021 01:05 8,6 C 8,6 C 8,7 C 77 % 1012,6 hPa 0,0 l/m 0,0 km/h (0 Bft) O-SO 112 0 min 0,0 UV-I 0 W/m 1,6 km/h (1 Bft)
10.04.2021 01:00 8,6 C 8,6 C 8,7 C 77 % 1012,6 hPa 0,0 l/m 1,6 km/h (1 Bft) O-SO 112 0 min 0,0 UV-I 0 W/m 4,8 km/h (1 Bft)
10.04.2021 00:55 8,7 C 8,7 C 8,8 C 76 % 1012,5 hPa 0,0 l/m 1,6 km/h (1 Bft) O-SO 112 0 min 0,0 UV-I 0 W/m 4,8 km/h (1 Bft)
10.04.2021 00:50 8,8 C 8,7 C 8,8 C 75 % 1012,6 hPa 0,0 l/m 1,6 km/h (1 Bft) SO 135 0 min 0,0 UV-I 0 W/m 4,8 km/h (1 Bft)
10.04.2021 00:45 8,8 C 8,8 C 8,9 C 74 % 1012,7 hPa 0,0 l/m 0,0 km/h (0 Bft) SO 135 0 min 0,0 UV-I 0 W/m 4,8 km/h (1 Bft)
10.04.2021 00:40 8,8 C 8,8 C 8,9 C 74 % 1012,8 hPa 0,0 l/m 0,0 km/h (0 Bft) SO 135 0 min 0,0 UV-I 0 W/m 3,2 km/h (1 Bft)
10.04.2021 00:35 8,9 C 8,9 C 9,1 C 74 % 1012,8 hPa 0,0 l/m 1,6 km/h (1 Bft) SO 135 0 min 0,0 UV-I 0 W/m 4,8 km/h (1 Bft)
10.04.2021 00:30 9,1 C 9,1 C 9,2 C 74 % 1013,0 hPa 0,0 l/m 3,2 km/h (1 Bft) S-SO 157 0 min 0,0 UV-I 0 W/m 8,0 km/h (2 Bft)
10.04.2021 00:25 9,2 C 9,2 C 9,3 C 72 % 1013,0 hPa 0,0 l/m 1,6 km/h (1 Bft) O 90 0 min 0,0 UV-I 0 W/m 4,8 km/h (1 Bft)
10.04.2021 00:20 9,2 C 9,2 C 9,3 C 72 % 1013,0 hPa 0,0 l/m 1,6 km/h (1 Bft) O 90 0 min 0,0 UV-I 0 W/m 6,4 km/h (2 Bft)
10.04.2021 00:15 9,2 C 9,2 C 9,2 C 71 % 1013,0 hPa 0,0 l/m 3,2 km/h (1 Bft) O 90 0 min 0,0 UV-I 0 W/m 11,3 km/h (2 Bft)
10.04.2021 00:10 9,2 C 9,2 C 9,3 C 72 % 1012,9 hPa 0,0 l/m 4,8 km/h (1 Bft) O 90 0 min 0,0 UV-I 0 W/m 11,3 km/h (2 Bft)
10.04.2021 00:05 9,3 C 9,3 C 9,3 C 72 % 1013,0 hPa 0,0 l/m 1,6 km/h (1 Bft) O 90 0 min 0,0 UV-I 0 W/m 11,3 km/h (2 Bft)
10.04.2021 00:00 9,3 C 9,3 C 9,4 C 72 % 1012,9 hPa 0,0 l/m 3,2 km/h (1 Bft) O 90 0 min 0,0 UV-I 0 W/m 6,4 km/h (2 Bft)
_ Min-Zeit 06:50 06:50 06:40 00:15 17:15 - 00:40 - - - - - 01:10
Minimum _ 6,7 C 6,7 C 6,8 C 71 % 1010,7 hPa - 0,0 km/h (0 Bft) - - - - - 0,0 km/h (0 Bft)
_ Max-Zeit 00:00 00:00 00:00 17:05 10:45 16:15 14:35 - - 00:00 14:05 14:05 15:35
Maximum _ 9,4 C 9,3 C 9,4 C 93 % 1014,7 hPa 0,4 l/m 11,3 km/h
O (2 Bft)
- - 0 min 1,5 UV-I 241 W/m 22,5 km/h
O (4 Bft)
Durchschnitt _ 8,1 C 8,1 C 8,2 C 85 % 1013,2 hPa #5,8 l/m 3,5 km/h (1 Bft) O - #0 min. 0,8 UV-I 104 W/m 8,2 km/h (2 Bft)